owner,sensor,date,latitude,longitude,vertical_datum,direction_of_sea_water_velocity,sea_water_speed,upward_sea_water_velocity,qcFlag 
TABS,ioos:station:wmo:42051:1,2014-06-01T00:00:00Z,29.6350,-93.6417,2.0,341.9063462,10.62544117,-99999.0,'11111222,11111222,99999999' 
TABS,ioos:station:wmo:42051:1,2014-06-01T00:30:00Z,29.6350,-93.6417,2.0,351.0782305,4.706952305,-99999.0,'11133222,11111222,99999999' 
TABS,ioos:station:wmo:42051:1,2014-06-01T01:00:00Z,29.6350,-93.6417,2.0,24.61470844,7.226686654,-99999.0,'11133222,11111222,99999999' 
TABS,ioos:station:wmo:42051:1,2014-06-01T01:30:00Z,29.6350,-93.6417,2.0,0.94911989,4.83066248,-99999.0,'11133222,11111222,99999999' 
TABS,ioos:station:wmo:42051:1,2014-06-01T02:00:00Z,29.6350,-93.6417,2.0,342.2605069,4.430677149,-99999.0,'11133222,11111222,99999999' 
TABS,ioos:station:wmo:42051:1,2014-06-01T02:30:00Z,29.6350,-93.6417,2.0,320.0106848,5.181679264,-99999.0,'11133222,11111222,99999999' 
TABS,ioos:station:wmo:42051:1,2014-06-01T03:00:00Z,29.6350,-93.6417,2.0,281.7851419,4.259788727,-99999.0,'11133222,11111222,99999999' 
TABS,ioos:station:wmo:42051:1,2014-06-01T03:30:00Z,29.6350,-93.6417,2.0,226.6926588,2.87210724,-99999.0,'11133222,11111222,99999999' 
TABS,ioos:station:wmo:42051:1,2014-06-01T04:00:00Z,29.6350,-93.6417,2.0,285.1413693,0.880567999,-99999.0,'11133222,11111222,99999999' 
TABS,ioos:station:wmo:42051:1,2014-06-01T04:30:00Z,29.6350,-93.6417,2.0,181.2968278,2.650679158,-99999.0,'11133222,11111222,99999999' 
TABS,ioos:station:wmo:42051:1,2014-06-01T05:00:00Z,29.6350,-93.6417,2.0,233.1516529,5.236000382,-99999.0,'11133222,11111222,99999999' 
TABS,ioos:station:wmo:42051:1,2014-06-01T05:30:00Z,29.6350,-93.6417,2.0,207.5867927,4.513103145,-99999.0,'11133222,11111222,99999999' 
TABS,ioos:station:wmo:42051:1,2014-06-01T06:00:00Z,29.6350,-93.6417,2.0,240.0515921,9.094283919,-99999.0,'11133222,11111222,99999999' 
TABS,ioos:station:wmo:42051:1,2014-06-01T06:30:00Z,29.6350,-93.6417,2.0,242.9784241,14.04295197,-99999.0,'11111222,11111222,99999999' 
TABS,ioos:station:wmo:42051:1,2014-06-01T07:00:00Z,29.6350,-93.6417,2.0,236.3602795,18.80989102,-99999.0,'11111222,11111222,99999999' 
TABS,ioos:station:wmo:42051:1,2014-06-01T07:30:00Z,29.6350,-93.6417,2.0,234.1353701,19.37298377,-99999.0,'11111222,11111222,99999999' 
TABS,ioos:station:wmo:42051:1,2014-06-01T08:00:00Z,29.6350,-93.6417,2.0,239.6063875,21.70250677,-99999.0,'11111222,11111222,99999999' 
TABS,ioos:station:wmo:42051:1,2014-06-01T08:30:00Z,29.6350,-93.6417,2.0,250.8465204,22.70693727,-99999.0,'11111222,11111222,99999999' 
TABS,ioos:station:wmo:42051:1,2014-06-01T09:00:00Z,29.6350,-93.6417,2.0,250.0702051,22.79512667,-99999.0,'11111222,11111222,99999999' 
TABS,ioos:station:wmo:42051:1,2014-06-01T09:30:00Z,29.6350,-93.6417,2.0,254.659194,31.22242303,-99999.0,'11111222,11111222,99999999' 
TABS,ioos:station:wmo:42051:1,2014-06-01T10:00:00Z,29.6350,-93.6417,2.0,258.170369,30.2933425,-99999.0,'11111222,11111222,99999999' 
TABS,ioos:station:wmo:42051:1,2014-06-01T10:30:00Z,29.6350,-93.6417,2.0,264.3207555,30.51978539,-99999.0,'11111222,11111222,99999999' 
TABS,ioos:station:wmo:42051:1,2014-06-01T11:00:00Z,29.6350,-93.6417,2.0,262.0737889,32.12689372,-99999.0,'11111222,11111222,99999999' 
TABS,ioos:station:wmo:42051:1,2014-06-01T11:30:00Z,29.6350,-93.6417,2.0,257.9513295,30.13378503,-99999.0,'11111222,11111222,99999999' 
TABS,ioos:station:wmo:42051:1,2014-06-01T12:00:00Z,29.6350,-93.6417,2.0,265.0087363,36.43815171,-99999.0,'11111222,11111222,99999999' 
TABS,ioos:station:wmo:42051:1,2014-06-01T12:30:00Z,29.6350,-93.6417,2.0,262.7140607,36.74667468,-99999.0,'11111222,11111222,99999999' 
TABS,ioos:station:wmo:42051:1,2014-06-01T13:00:00Z,29.6350,-93.6417,2.0,266.0266627,36.94879159,-99999.0,'11111222,11111222,99999999' 
TABS,ioos:station:wmo:42051:1,2014-06-01T13:30:00Z,29.6350,-93.6417,2.0,272.735468,24.93840813,-99999.0,'11111222,11111222,99999999' 
TABS,ioos:station:wmo:42051:1,2014-06-01T14:00:00Z,29.6350,-93.6417,2.0,281.441438,19.71168435,-99999.0,'11111222,11111222,99999999' 
TABS,ioos:station:wmo:42051:1,2014-06-01T14:30:00Z,29.6350,-93.6417,2.0,276.7833295,20.15104216,-99999.0,'11111222,11111222,99999999' 
TABS,ioos:station:wmo:42051:1,2014-06-01T15:00:00Z,29.6350,-93.6417,2.0,270.8660859,29.12332399,-99999.0,'11111222,11111222,99999999' 
TABS,ioos:station:wmo:42051:1,2014-06-01T15:30:00Z,29.6350,-93.6417,2.0,274.7794463,24.72596206,-99999.0,'11111222,11111222,99999999' 
TABS,ioos:station:wmo:42051:1,2014-06-01T16:00:00Z,29.6350,-93.6417,2.0,268.9927294,22.76351467,-99999.0,'11111222,11111222,99999999' 
TABS,ioos:station:wmo:42051:1,2014-06-01T16:30:00Z,29.6350,-93.6417,2.0,264.3459403,22.02714916,-99999.0,'11111222,11111222,99999999' 
TABS,ioos:station:wmo:42051:1,2014-06-01T17:00:00Z,29.6350,-93.6417,2.0,268.4111316,29.58136745,-99999.0,'11111222,11111222,99999999' 
TABS,ioos:station:wmo:42051:1,2014-06-01T17:30:00Z,29.6350,-93.6417,2.0,268.2300951,29.79420749,-99999.0,'11111222,11111222,99999999' 
TABS,ioos:station:wmo:42051:1,2014-06-01T18:00:00Z,29.6350,-93.6417,2.0,278.9185981,16.96509652,-99999.0,'11111222,11111222,99999999' 
TABS,ioos:station:wmo:42051:1,2014-06-01T18:30:00Z,29.6350,-93.6417,2.0,279.7279767,19.530809,-99999.0,'11111222,11111222,99999999' 
TABS,ioos:station:wmo:42051:1,2014-06-01T19:00:00Z,29.6350,-93.6417,2.0,270.404922,19.83049419,-99999.0,'11111222,11111222,99999999' 
TABS,ioos:station:wmo:42051:1,2014-06-01T19:30:00Z,29.6350,-93.6417,2.0,269.6595496,16.85029673,-99999.0,'11111222,11111222,99999999' 
TABS,ioos:station:wmo:42051:1,2014-06-01T20:00:00Z,29.6350,-93.6417,2.0,268.7439203,24.18580782,-99999.0,'11111222,11111222,99999999' 
TABS,ioos:station:wmo:42051:1,2014-06-01T20:30:00Z,29.6350,-93.6417,2.0,282.8488056,13.80566913,-99999.0,'11111222,11111222,99999999' 
TABS,ioos:station:wmo:42051:1,2014-06-01T21:00:00Z,29.6350,-93.6417,2.0,277.8925175,13.61899409,-99999.0,'11111222,11111222,99999999' 
TABS,ioos:station:wmo:42051:1,2014-06-01T21:30:00Z,29.6350,-93.6417,2.0,277.801361,10.09340874,-99999.0,'11111222,11111222,99999999' 
TABS,ioos:station:wmo:42051:1,2014-06-01T22:00:00Z,29.6350,-93.6417,2.0,274.956537,14.58452947,-99999.0,'11111222,11111222,99999999' 
TABS,ioos:station:wmo:42051:1,2014-06-01T22:30:00Z,29.6350,-93.6417,2.0,271.5129166,20.8372599,-99999.0,'11111222,11111222,99999999' 
TABS,ioos:station:wmo:42051:1,2014-06-01T23:00:00Z,29.6350,-93.6417,2.0,285.7078511,29.4393699,-99999.0,'11111222,11111222,99999999' 
TABS,ioos:station:wmo:42051:1,2014-06-01T23:30:00Z,29.6350,-93.6417,2.0,282.7056192,34.87390572,-99999.0,'11111222,11111222,99999999' 
TABS,ioos:station:wmo:42051:1,2014-06-02T00:00:00Z,29.6350,-93.6417,2.0,270.4917651,32.65120059,-99999.0,'11111222,11111222,99999999' 
TABS,ioos:station:wmo:42051:1,2014-06-02T00:30:00Z,29.6350,-93.6417,2.0,271.2719919,43.71076412,-99999.0,'11111222,11111222,99999999' 
TABS,ioos:station:wmo:42051:1,2014-06-02T01:00:00Z,29.6350,-93.6417,2.0,267.4286704,39.45971743,-99999.0,'11111222,11111222,99999999' 
TABS,ioos:station:wmo:42051:1,2014-06-02T01:30:00Z,29.6350,-93.6417,2.0,267.2132444,39.4966948,-99999.0,'11111222,11111222,99999999' 
TABS,ioos:station:wmo:42051:1,2014-06-02T02:00:00Z,29.6350,-93.6417,2.0,260.3591848,37.02283079,-99999.0,'11111222,11111222,99999999' 
TABS,ioos:station:wmo:42051:1,2014-06-02T02:30:00Z,29.6350,-93.6417,2.0,256.2965564,41.70713128,-99999.0,'11111222,11111222,99999999' 
TABS,ioos:station:wmo:42051:1,2014-06-02T03:00:00Z,29.6350,-93.6417,2.0,243.3296103,43.93433737,-99999.0,'11111222,11111222,99999999' 
TABS,ioos:station:wmo:42051:1,2014-06-02T03:30:00Z,29.6350,-93.6417,2.0,258.5975667,41.47861618,-99999.0,'11111222,11111222,99999999' 
TABS,ioos:station:wmo:42051:1,2014-06-02T04:00:00Z,29.6350,-93.6417,2.0,262.6633268,38.68669668,-99999.0,'11111222,11111222,99999999' 
TABS,ioos:station:wmo:42051:1,2014-06-02T04:30:00Z,29.6350,-93.6417,2.0,248.5902029,47.22900062,-99999.0,'11111222,11111222,99999999' 
TABS,ioos:station:wmo:42051:1,2014-06-02T05:00:00Z,29.6350,-93.6417,2.0,243.9814036,46.39157898,-99999.0,'11111222,11111222,99999999' 
TABS,ioos:station:wmo:42051:1,2014-06-02T05:30:00Z,29.6350,-93.6417,2.0,252.0507956,39.880919,-99999.0,'11111222,11111222,99999999' 
TABS,ioos:station:wmo:42051:1,2014-06-02T06:00:00Z,29.6350,-93.6417,2.0,245.2697862,48.59679516,-99999.0,'11111222,11111222,99999999' 
TABS,ioos:station:wmo:42051:1,2014-06-02T06:30:00Z,29.6350,-93.6417,2.0,252.2576075,41.05252855,-99999.0,'11111222,11111222,99999999' 
TABS,ioos:station:wmo:42051:1,2014-06-02T07:00:00Z,29.6350,-93.6417,2.0,259.1637954,45.267115,-99999.0,'11111222,11111222,99999999' 
TABS,ioos:station:wmo:42051:1,2014-06-02T07:30:00Z,29.6350,-93.6417,2.0,253.4590239,43.23931776,-99999.0,'11111222,11111222,99999999' 
TABS,ioos:station:wmo:42051:1,2014-06-02T08:00:00Z,29.6350,-93.6417,2.0,254.8964735,42.98476474,-99999.0,'11111222,11111222,99999999' 
TABS,ioos:station:wmo:42051:1,2014-06-02T08:30:00Z,29.6350,-93.6417,2.0,256.4753206,49.94492967,-99999.0,'11111222,11111222,99999999' 
TABS,ioos:station:wmo:42051:1,2014-06-02T09:00:00Z,29.6350,-93.6417,2.0,254.5051035,48.69994867,-99999.0,'11111222,11111222,99999999' 
TABS,ioos:station:wmo:42051:1,2014-06-02T09:30:00Z,29.6350,-93.6417,2.0,261.9463981,48.46797087,-99999.0,'11111222,11111222,99999999' 
TABS,ioos:station:wmo:42051:1,2014-06-02T10:00:00Z,29.6350,-93.6417,2.0,258.3645882,47.70013417,-99999.0,'11111222,11111222,99999999' 
TABS,ioos:station:wmo:42051:1,2014-06-02T10:30:00Z,29.6350,-93.6417,2.0,255.8040999,50.60525368,-99999.0,'11111222,11111222,99999999' 
TABS,ioos:station:wmo:42051:1,2014-06-02T11:00:00Z,29.6350,-93.6417,2.0,254.002057,46.77129141,-99999.0,'11111222,11111222,99999999' 
TABS,ioos:station:wmo:42051:1,2014-06-02T11:30:00Z,29.6350,-93.6417,2.0,251.5199334,44.54701898,-99999.0,'11111222,11111222,99999999' 
TABS,ioos:station:wmo:42051:1,2014-06-02T12:00:00Z,29.6350,-93.6417,2.0,249.1900108,45.48731691,-99999.0,'11111222,11111222,99999999' 
TABS,ioos:station:wmo:42051:1,2014-06-02T12:30:00Z,29.6350,-93.6417,2.0,249.269155,44.21249823,-99999.0,'11111222,11111222,99999999' 
TABS,ioos:station:wmo:42051:1,2014-06-02T13:00:00Z,29.6350,-93.6417,2.0,248.5886535,41.96626383,-99999.0,'11111222,11111222,99999999' 
TABS,ioos:station:wmo:42051:1,2014-06-02T13:30:00Z,29.6350,-93.6417,2.0,245.8141234,43.30078059,-99999.0,'11111222,11111222,99999999' 
TABS,ioos:station:wmo:42051:1,2014-06-02T14:00:00Z,29.6350,-93.6417,2.0,247.1417442,35.55184524,-99999.0,'11111222,11111222,99999999' 
TABS,ioos:station:wmo:42051:1,2014-06-02T14:30:00Z,29.6350,-93.6417,2.0,254.2018317,35.18914605,-99999.0,'11111222,11111222,99999999' 
TABS,ioos:station:wmo:42051:1,2014-06-02T15:00:00Z,29.6350,-93.6417,2.0,246.7081428,38.06184573,-99999.0,'11111222,11111222,99999999' 
TABS,ioos:station:wmo:42051:1,2014-06-02T15:30:00Z,29.6350,-93.6417,2.0,238.0291295,34.84531676,-99999.0,'11111222,11111222,99999999' 
TABS,ioos:station:wmo:42051:1,2014-06-02T16:00:00Z,29.6350,-93.6417,2.0,246.3841584,30.67924706,-99999.0,'11111222,11111222,99999999' 
TABS,ioos:station:wmo:42051:1,2014-06-02T16:30:00Z,29.6350,-93.6417,2.0,253.5257151,23.37976262,-99999.0,'11111222,11111222,99999999' 
TABS,ioos:station:wmo:42051:1,2014-06-02T17:00:00Z,29.6350,-93.6417,2.0,264.8465759,25.05124747,-99999.0,'11111222,11111222,99999999' 
TABS,ioos:station:wmo:42051:1,2014-06-02T17:30:00Z,29.6350,-93.6417,2.0,268.7683831,15.82365318,-99999.0,'11111222,11111222,99999999' 
TABS,ioos:station:wmo:42051:1,2014-06-02T18:00:00Z,29.6350,-93.6417,2.0,266.8083943,19.58036261,-99999.0,'11111222,11111222,99999999' 
TABS,ioos:station:wmo:42051:1,2014-06-02T18:30:00Z,29.6350,-93.6417,2.0,281.3412111,40.02142551,-99999.0,'11111222,11111222,99999999' 
TABS,ioos:station:wmo:42051:1,2014-06-02T19:00:00Z,29.6350,-93.6417,2.0,276.5872026,54.13734848,-99999.0,'11111222,11111222,99999999' 
TABS,ioos:station:wmo:42051:1,2014-06-02T19:30:00Z,29.6350,-93.6417,2.0,269.3451909,58.66382616,-99999.0,'11111222,11111222,99999999' 
TABS,ioos:station:wmo:42051:1,2014-06-02T20:00:00Z,29.6350,-93.6417,2.0,267.7356924,59.99682825,-99999.0,'11111222,11111222,99999999' 
TABS,ioos:station:wmo:42051:1,2014-06-02T20:30:00Z,29.6350,-93.6417,2.0,265.4848124,57.16738668,-99999.0,'11111222,11111222,99999999' 
TABS,ioos:station:wmo:42051:1,2014-06-02T21:00:00Z,29.6350,-93.6417,2.0,262.5767768,54.64796154,-99999.0,'11111222,11111222,99999999' 
TABS,ioos:station:wmo:42051:1,2014-06-02T21:30:00Z,29.6350,-93.6417,2.0,261.5794202,46.36982855,-99999.0,'11111222,11111222,99999999' 
TABS,ioos:station:wmo:42051:1,2014-06-02T22:00:00Z,29.6350,-93.6417,2.0,259.5089489,50.74827682,-99999.0,'11111222,11111222,99999999' 
TABS,ioos:station:wmo:42051:1,2014-06-02T22:30:00Z,29.6350,-93.6417,2.0,251.1920745,46.68252992,-99999.0,'11111222,11111222,99999999' 
TABS,ioos:station:wmo:42051:1,2014-06-02T23:00:00Z,29.6350,-93.6417,2.0,249.4645847,51.08612336,-99999.0,'11111222,11111222,99999999' 
TABS,ioos:station:wmo:42051:1,2014-06-02T23:30:00Z,29.6350,-93.6417,2.0,269.614993,67.04151028,-99999.0,'11111222,11111222,99999999' 
TABS,ioos:station:wmo:42051:1,2014-06-03T00:00:00Z,29.6350,-93.6417,2.0,259.012748,73.03873219,-99999.0,'11111222,11111222,99999999' 
TABS,ioos:station:wmo:42051:1,2014-06-03T00:30:00Z,29.6350,-93.6417,2.0,255.5599268,69.57791963,-99999.0,'11111222,11111222,99999999' 
TABS,ioos:station:wmo:42051:1,2014-06-03T01:00:00Z,29.6350,-93.6417,2.0,257.6054121,66.01862843,-99999.0,'11111222,11111222,99999999' 
TABS,ioos:station:wmo:42051:1,2014-06-03T01:30:00Z,29.6350,-93.6417,2.0,254.0077583,60.97986881,-99999.0,'11111222,11111222,99999999' 
TABS,ioos:station:wmo:42051:1,2014-06-03T02:00:00Z,29.6350,-93.6417,2.0,250.3703198,56.58860398,-99999.0,'11111222,11111222,99999999' 
TABS,ioos:station:wmo:42051:1,2014-06-03T02:30:00Z,29.6350,-93.6417,2.0,250.2377882,55.3072554,-99999.0,'11111222,11111222,99999999' 
TABS,ioos:station:wmo:42051:1,2014-06-03T03:00:00Z,29.6350,-93.6417,2.0,243.2274921,50.72776952,-99999.0,'11111222,11111222,99999999' 
TABS,ioos:station:wmo:42051:1,2014-06-03T03:30:00Z,29.6350,-93.6417,2.0,238.690796,46.12709616,-99999.0,'11111222,11111222,99999999' 
TABS,ioos:station:wmo:42051:1,2014-06-03T04:00:00Z,29.6350,-93.6417,2.0,243.5429855,44.91374177,-99999.0,'11111222,11111222,99999999' 
TABS,ioos:station:wmo:42051:1,2014-06-03T04:30:00Z,29.6350,-93.6417,2.0,239.7995779,49.02379524,-99999.0,'11111222,11111222,99999999' 
TABS,ioos:station:wmo:42051:1,2014-06-03T05:00:00Z,29.6350,-93.6417,2.0,243.9866992,51.05180212,-99999.0,'11111222,11111222,99999999' 
TABS,ioos:station:wmo:42051:1,2014-06-03T05:30:00Z,29.6350,-93.6417,2.0,245.0596042,43.68350375,-99999.0,'11111222,11111222,99999999' 
TABS,ioos:station:wmo:42051:1,2014-06-03T06:00:00Z,29.6350,-93.6417,2.0,233.7145157,49.18856168,-99999.0,'11111222,11111222,99999999' 
TABS,ioos:station:wmo:42051:1,2014-06-03T06:30:00Z,29.6350,-93.6417,2.0,230.658215,46.47122981,-99999.0,'11111222,11111222,99999999' 
TABS,ioos:station:wmo:42051:1,2014-06-03T07:00:00Z,29.6350,-93.6417,2.0,240.8905686,43.92836555,-99999.0,'11111222,11111222,99999999' 
TABS,ioos:station:wmo:42051:1,2014-06-03T07:30:00Z,29.6350,-93.6417,2.0,234.4785218,40.2751586,-99999.0,'11111222,11111222,99999999' 
TABS,ioos:station:wmo:42051:1,2014-06-03T08:00:00Z,29.6350,-93.6417,2.0,233.3780312,40.61838131,-99999.0,'11111222,11111222,99999999' 
TABS,ioos:station:wmo:42051:1,2014-06-03T08:30:00Z,29.6350,-93.6417,2.0,231.3497456,45.26384208,-99999.0,'11111222,11111222,99999999' 
TABS,ioos:station:wmo:42051:1,2014-06-03T09:00:00Z,29.6350,-93.6417,2.0,223.6750661,47.10589984,-99999.0,'11111222,11111222,99999999' 
TABS,ioos:station:wmo:42051:1,2014-06-03T09:30:00Z,29.6350,-93.6417,2.0,219.6602783,41.48920341,-99999.0,'11111222,11111222,99999999' 
TABS,ioos:station:wmo:42051:1,2014-06-03T10:00:00Z,29.6350,-93.6417,2.0,218.4063765,44.89414773,-99999.0,'11111222,11111222,99999999' 
TABS,ioos:station:wmo:42051:1,2014-06-03T10:30:00Z,29.6350,-93.6417,2.0,245.0668274,33.75596244,-99999.0,'11111222,11111222,99999999' 
TABS,ioos:station:wmo:42051:1,2014-06-03T11:00:00Z,29.6350,-93.6417,2.0,262.8414988,27.92766549,-99999.0,'11111222,11111222,99999999' 
TABS,ioos:station:wmo:42051:1,2014-06-03T11:30:00Z,29.6350,-93.6417,2.0,257.1856318,31.38154872,-99999.0,'11111222,11111222,99999999' 
TABS,ioos:station:wmo:42051:1,2014-06-03T12:00:00Z,29.6350,-93.6417,2.0,256.0852931,30.77298978,-99999.0,'11111222,11111222,99999999' 
TABS,ioos:station:wmo:42051:1,2014-06-03T12:30:00Z,29.6350,-93.6417,2.0,260.2834124,31.16706595,-99999.0,'11111222,11111222,99999999' 
TABS,ioos:station:wmo:42051:1,2014-06-03T13:00:00Z,29.6350,-93.6417,2.0,257.2400864,31.78490837,-99999.0,'11111222,11111222,99999999' 
TABS,ioos:station:wmo:42051:1,2014-06-03T13:30:00Z,29.6350,-93.6417,2.0,261.402281,28.09570074,-99999.0,'11111222,11111222,99999999' 
TABS,ioos:station:wmo:42051:1,2014-06-03T14:00:00Z,29.6350,-93.6417,2.0,252.6144905,32.96595365,-99999.0,'11111222,11111222,99999999' 
TABS,ioos:station:wmo:42051:1,2014-06-03T14:30:00Z,29.6350,-93.6417,2.0,287.6982724,50.39506424,-99999.0,'11111222,11111222,99999999' 
TABS,ioos:station:wmo:42051:1,2014-06-03T15:00:00Z,29.6350,-93.6417,2.0,289.8891417,47.73729883,-99999.0,'11111222,11111222,99999999' 
TABS,ioos:station:wmo:42051:1,2014-06-03T15:30:00Z,29.6350,-93.6417,2.0,288.8218007,52.50765278,-99999.0,'11111222,11111222,99999999' 
TABS,ioos:station:wmo:42051:1,2014-06-03T16:00:00Z,29.6350,-93.6417,2.0,283.4745908,44.50500309,-99999.0,'11111222,11111222,99999999' 
TABS,ioos:station:wmo:42051:1,2014-06-03T16:30:00Z,29.6350,-93.6417,2.0,278.7750901,51.91765114,-99999.0,'11111222,11111222,99999999' 
TABS,ioos:station:wmo:42051:1,2014-06-03T17:00:00Z,29.6350,-93.6417,2.0,278.3542089,51.07188365,-99999.0,'11111222,11111222,99999999' 
TABS,ioos:station:wmo:42051:1,2014-06-03T17:30:00Z,29.6350,-93.6417,2.0,277.0099691,51.70646478,-99999.0,'11111222,11111222,99999999' 
TABS,ioos:station:wmo:42051:1,2014-06-03T18:00:00Z,29.6350,-93.6417,2.0,284.2832169,52.41000859,-99999.0,'11111222,11111222,99999999' 
TABS,ioos:station:wmo:42051:1,2014-06-03T18:30:00Z,29.6350,-93.6417,2.0,283.9631002,47.24597866,-99999.0,'11111222,11111222,99999999' 
TABS,ioos:station:wmo:42051:1,2014-06-03T19:00:00Z,29.6350,-93.6417,2.0,279.3419635,48.36135751,-99999.0,'11111222,11111222,99999999' 
TABS,ioos:station:wmo:42051:1,2014-06-03T19:30:00Z,29.6350,-93.6417,2.0,280.8774931,46.21020234,-99999.0,'11111222,11111222,99999999' 
TABS,ioos:station:wmo:42051:1,2014-06-03T20:00:00Z,29.6350,-93.6417,2.0,280.0610872,46.59650201,-99999.0,'11111222,11111222,99999999' 
TABS,ioos:station:wmo:42051:1,2014-06-03T20:30:00Z,29.6350,-93.6417,2.0,278.7695349,41.71765214,-99999.0,'11111222,11111222,99999999' 
TABS,ioos:station:wmo:42051:1,2014-06-03T21:00:00Z,29.6350,-93.6417,2.0,288.4667609,40.34750674,-99999.0,'11111222,11111222,99999999' 
TABS,ioos:station:wmo:42051:1,2014-06-03T21:30:00Z,29.6350,-93.6417,2.0,281.3469844,39.84884565,-99999.0,'11111222,11111222,99999999' 
TABS,ioos:station:wmo:42051:1,2014-06-03T22:00:00Z,29.6350,-93.6417,2.0,274.4408984,36.81049443,-99999.0,'11111222,11111222,99999999' 
TABS,ioos:station:wmo:42051:1,2014-06-03T22:30:00Z,29.6350,-93.6417,2.0,273.2333803,40.07377821,-99999.0,'11111222,11111222,99999999' 
TABS,ioos:station:wmo:42051:1,2014-06-03T23:00:00Z,29.6350,-93.6417,2.0,271.9995723,26.08587741,-99999.0,'11111222,11111222,99999999' 
TABS,ioos:station:wmo:42051:1,2014-06-03T23:30:00Z,29.6350,-93.6417,2.0,261.2716816,31.0394346,-99999.0,'11111222,11111222,99999999' 
TABS,ioos:station:wmo:42051:1,2014-06-04T00:00:00Z,29.6350,-93.6417,2.0,248.2094513,28.42067205,-99999.0,'11111222,11111222,99999999' 
TABS,ioos:station:wmo:42051:1,2014-06-04T00:30:00Z,29.6350,-93.6417,2.0,255.4447135,36.17081973,-99999.0,'11111222,11111222,99999999' 
TABS,ioos:station:wmo:42051:1,2014-06-04T01:00:00Z,29.6350,-93.6417,2.0,247.4941192,34.30237601,-99999.0,'11111222,11111222,99999999' 
TABS,ioos:station:wmo:42051:1,2014-06-04T01:30:00Z,29.6350,-93.6417,2.0,243.5040287,29.52059112,-99999.0,'11111222,11111222,99999999' 
TABS,ioos:station:wmo:42051:1,2014-06-04T02:00:00Z,29.6350,-93.6417,2.0,248.6024025,27.90327579,-99999.0,'11111222,11111222,99999999' 
TABS,ioos:station:wmo:42051:1,2014-06-04T02:30:00Z,29.6350,-93.6417,2.0,251.4826663,26.51256306,-99999.0,'11111222,11111222,99999999' 
TABS,ioos:station:wmo:42051:1,2014-06-04T03:00:00Z,29.6350,-93.6417,2.0,241.4141054,27.52522116,-99999.0,'11111222,11111222,99999999' 
TABS,ioos:station:wmo:42051:1,2014-06-04T03:30:00Z,29.6350,-93.6417,2.0,252.6950551,31.09756582,-99999.0,'11111222,11111222,99999999' 
TABS,ioos:station:wmo:42051:1,2014-06-04T04:00:00Z,29.6350,-93.6417,2.0,229.0606731,41.03744753,-99999.0,'11111222,11111222,99999999' 
TABS,ioos:station:wmo:42051:1,2014-06-04T04:30:00Z,29.6350,-93.6417,2.0,228.9017848,39.79630259,-99999.0,'11111222,11111222,99999999' 
TABS,ioos:station:wmo:42051:1,2014-06-04T05:00:00Z,29.6350,-93.6417,2.0,232.3320317,39.50382893,-99999.0,'11111222,11111222,99999999' 
TABS,ioos:station:wmo:42051:1,2014-06-04T05:30:00Z,29.6350,-93.6417,2.0,237.9492928,39.15845375,-99999.0,'11111222,11111222,99999999' 
TABS,ioos:station:wmo:42051:1,2014-06-04T06:00:00Z,29.6350,-93.6417,2.0,239.9424679,38.91275498,-99999.0,'11111222,11111222,99999999' 
TABS,ioos:station:wmo:42051:1,2014-06-04T06:30:00Z,29.6350,-93.6417,2.0,234.8903674,40.4250838,-99999.0,'11111222,11111222,99999999' 
TABS,ioos:station:wmo:42051:1,2014-06-04T07:00:00Z,29.6350,-93.6417,2.0,236.9099787,34.6734394,-99999.0,'11111222,11111222,99999999' 
TABS,ioos:station:wmo:42051:1,2014-06-04T07:30:00Z,29.6350,-93.6417,2.0,237.251515,39.98541984,-99999.0,'11111222,11111222,99999999' 
TABS,ioos:station:wmo:42051:1,2014-06-04T08:00:00Z,29.6350,-93.6417,2.0,238.0494032,37.45398243,-99999.0,'11111222,11111222,99999999' 
TABS,ioos:station:wmo:42051:1,2014-06-04T08:30:00Z,29.6350,-93.6417,2.0,237.2123963,38.37337619,-99999.0,'11111222,11111222,99999999' 
TABS,ioos:station:wmo:42051:1,2014-06-04T09:00:00Z,29.6350,-93.6417,2.0,239.0582129,35.22238209,-99999.0,'11111222,11111222,99999999' 
TABS,ioos:station:wmo:42051:1,2014-06-04T09:30:00Z,29.6350,-93.6417,2.0,237.1777079,35.33013728,-99999.0,'11111222,11111222,99999999' 
TABS,ioos:station:wmo:42051:1,2014-06-04T10:00:00Z,29.6350,-93.6417,2.0,244.9053204,33.97706579,-99999.0,'11111222,11111222,99999999' 
TABS,ioos:station:wmo:42051:1,2014-06-04T10:30:00Z,29.6350,-93.6417,2.0,237.6736171,36.93408453,-99999.0,'11111222,11111222,99999999' 
TABS,ioos:station:wmo:42051:1,2014-06-04T11:00:00Z,29.6350,-93.6417,2.0,234.2125864,34.18410449,-99999.0,'11111222,11111222,99999999' 
TABS,ioos:station:wmo:42051:1,2014-06-04T11:30:00Z,29.6350,-93.6417,2.0,234.7952255,35.57702911,-99999.0,'11111222,11111222,99999999' 
TABS,ioos:station:wmo:42051:1,2014-06-04T12:00:00Z,29.6350,-93.6417,2.0,226.6535521,34.79000431,-99999.0,'11111222,11111222,99999999' 
TABS,ioos:station:wmo:42051:1,2014-06-04T12:30:00Z,29.6350,-93.6417,2.0,221.6092413,33.71729823,-99999.0,'11111222,11111222,99999999' 
TABS,ioos:station:wmo:42051:1,2014-06-04T13:00:00Z,29.6350,-93.6417,2.0,221.0408553,31.64783247,-99999.0,'11111222,11111222,99999999' 
TABS,ioos:station:wmo:42051:1,2014-06-04T13:30:00Z,29.6350,-93.6417,2.0,222.2787984,28.45069595,-99999.0,'11111222,11111222,99999999' 
TABS,ioos:station:wmo:42051:1,2014-06-04T14:00:00Z,29.6350,-93.6417,2.0,214.8741554,32.33760968,-99999.0,'11111222,11111222,99999999' 
TABS,ioos:station:wmo:42051:1,2014-06-04T14:30:00Z,29.6350,-93.6417,2.0,206.7564857,30.74163463,-99999.0,'11111222,11111222,99999999' 
TABS,ioos:station:wmo:42051:1,2014-06-04T15:00:00Z,29.6350,-93.6417,2.0,202.5457336,34.00925903,-99999.0,'11111222,11111222,99999999' 
TABS,ioos:station:wmo:42051:1,2014-06-04T15:30:00Z,29.6350,-93.6417,2.0,207.0136441,39.95976101,-99999.0,'11111222,11111222,99999999' 
TABS,ioos:station:wmo:42051:1,2014-06-04T16:00:00Z,29.6350,-93.6417,2.0,208.9415626,41.94894635,-99999.0,'11111222,11111222,99999999' 